Change the Weather History Date:

Wednesday, March 20, 2013

  Actual Average Record
Temperature  
Mean Temperature 37 °F 43 °F  
Max Temperature 48 °F 55 °F 77 °F (2012)
Min Temperature 26 °F 31 °F 16 °F (1981)
Degree Days  
Heating Degree Days 28 22  
Month to date heating degree days 568 502  
Since 1 July heating degree days 4428 4550  
Cooling Degree Days 0 0  
Month to date cooling degree days 0 0  
Year to date cooling degree days 0 0  
Moisture  
Dew Point 17 °F    
Average Humidity 60    
Maximum Humidity 96    
Minimum Humidity 24    
Precipitation  
Precipitation T in 0.13 in 1.28 in (2003)
Month to date precipitation 2.32 2.24  
Year to date precipitation 11.42 8.13  
Snow  
Snow T in - - ()
Month to date snowfall 0.5  
Since 1 July snowfall 18.1  
Snow Depth 0.00 in    
Sea Level Pressure  
Sea Level Pressure 29.94 in    
Wind  
Wind Speed 8 mph (West)    
Max Wind Speed 15 mph    
Max Gust Speed 25 mph    
Visibility 10 miles    
Events Snow    
T = Trace of Precipitation, MM = Missing Value Source: NWS Daily Summary

Daily Weather History Graph

Daily Weather History Graph

Search for Another Location

Airport or City:

Trip Planner

Search our weather history database for the weather conditions in past years. The results will help you decide how hot, cold, wet, or windy it might be!

Date:

Astronomy

Mar. 20, 2013 Rise Set
Actual Time 7:24 AM EDT 7:33 PM EDT
Civil Twilight 6:58 AM EDT 7:59 PM EDT
Nautical Twilight 6:28 AM EDT 8:30 PM EDT
Astronomical Twilight 5:57 AM EDT 9:00 PM EDT
Moon 1:14 PM EDT (3/20) 2:56 AM EDT (3/20)
Length of Visible Light 13h 00m
Length of Day
12h 08m
First Quarter, 59% of the Moon is Illuminated
Mar 20
First Quarter
Mar 27
Full
Apr 3
Last Quarter
Apr 10
New
Apr 18
First Quarter

Hourly Weather History & Observations

Time (EDT) Temp. Windchill Dew Point Humidity Pressure Visibility Wind Dir Wind Speed Gust Speed Precip Events Conditions
12:15 AM 39.2 °F 32.5 °F 10.4 °F 31% 30.04 in 10.0 mi WNW 10.4 mph 20.7 mph N/A   Clear
12:35 AM 37.4 °F 33.8 °F 10.4 °F 33% 30.04 in 10.0 mi West 4.6 mph - N/A   Clear
12:55 AM 37.4 °F 33.8 °F 10.4 °F 33% 30.04 in 10.0 mi West 4.6 mph - N/A   Clear
1:15 AM 37.4 °F 33.8 °F 10.4 °F 33% 30.05 in 10.0 mi West 4.6 mph - N/A   Clear
1:35 AM 37.4 °F 32.8 °F 10.4 °F 33% 30.05 in 10.0 mi West 5.8 mph - N/A   Clear
1:55 AM 35.6 °F 30.7 °F 12.2 °F 38% 30.05 in 10.0 mi West 5.8 mph - N/A   Clear
2:15 AM 35.6 °F 30.7 °F 12.2 °F 38% 30.05 in 10.0 mi West 5.8 mph - N/A   Clear
2:35 AM 35.6 °F 28.6 °F 12.2 °F 38% 30.04 in 10.0 mi West 9.2 mph - N/A   Clear
2:55 AM 35.6 °F 28.6 °F 12.2 °F 38% 30.04 in 10.0 mi West 9.2 mph - N/A   Clear
3:15 AM 35.6 °F 27.1 °F 12.2 °F 38% 30.04 in 10.0 mi WNW 12.7 mph 19.6 mph N/A   Clear
3:35 AM 35.6 °F 29.2 °F 14.0 °F 41% 30.04 in 10.0 mi West 8.1 mph - N/A   Clear
3:55 AM 35.6 °F 29.2 °F 12.2 °F 38% 30.03 in 10.0 mi West 8.1 mph - N/A   Clear
4:15 AM 35.6 °F 29.2 °F 12.2 °F 38% 30.03 in 10.0 mi West 8.1 mph - N/A   Clear
4:35 AM 33.8 °F 28.6 °F 14.0 °F 44% 30.02 in 10.0 mi West 5.8 mph - N/A   Clear
4:55 AM 33.8 °F 28.6 °F 15.8 °F 48% 30.02 in 10.0 mi West 5.8 mph - N/A   Clear
5:15 AM 33.8 °F 27.7 °F 15.8 °F 48% 30.02 in 10.0 mi West 6.9 mph - N/A   Clear
5:35 AM 33.8 °F 28.6 °F 15.8 °F 48% 30.02 in 10.0 mi West 5.8 mph - N/A   Clear
5:55 AM 32.0 °F 27.5 °F 15.8 °F 51% 30.02 in 10.0 mi West 4.6 mph - N/A   Clear
6:15 AM 32.0 °F 27.5 °F 15.8 °F 51% 30.03 in 10.0 mi West 4.6 mph - N/A   Clear
6:35 AM 30.2 °F - 15.8 °F 55% 30.03 in 10.0 mi Calm Calm - N/A   Clear
6:55 AM 30.2 °F - 15.8 °F 55% 30.03 in 10.0 mi Calm Calm - N/A   Clear
7:15 AM 30.2 °F 26.7 °F 15.8 °F 55% 30.03 in 10.0 mi West 3.5 mph - N/A   Clear
7:35 AM 28.4 °F - 17.6 °F 64% 30.04 in 10.0 mi Calm Calm - N/A   Clear
7:55 AM 30.2 °F - 17.6 °F 60% 30.04 in 10.0 mi Calm Calm - N/A   Clear
8:15 AM 32.0 °F 27.5 °F 17.6 °F 55% 30.05 in 10.0 mi WNW 4.6 mph - N/A   Clear
8:35 AM 33.8 °F 28.6 °F 15.8 °F 48% 30.05 in 10.0 mi WNW 5.8 mph - N/A   Clear
8:55 AM 35.6 °F 29.2 °F 17.6 °F 48% 30.05 in 10.0 mi West 8.1 mph - N/A   Clear
9:15 AM 37.4 °F 30.8 °F 17.6 °F 45% 30.06 in 10.0 mi West 9.2 mph - N/A   Clear
9:35 AM 37.4 °F 29.3 °F 15.8 °F 41% 30.06 in 10.0 mi WNW 12.7 mph 18.4 mph N/A   Clear
9:55 AM 37.4 °F 31.4 °F 15.8 °F 41% 30.06 in 10.0 mi West 8.1 mph 16.1 mph N/A   Clear
10:15 AM 39.2 °F 34.2 °F 17.6 °F 42% 30.05 in 10.0 mi West 6.9 mph - N/A   Clear
10:35 AM 39.2 °F 35.0 °F 17.6 °F 42% 30.05 in 10.0 mi WNW 5.8 mph - N/A   Clear
10:55 AM 41.0 °F 36.4 °F 17.6 °F 39% 30.04 in 10.0 mi WSW 6.9 mph - N/A   Clear
11:15 AM 42.8 °F 40.1 °F 17.6 °F 36% 30.04 in 10.0 mi West 4.6 mph - N/A   Clear
11:55 AM 44.6 °F 40.7 °F 19.4 °F 37% 30.02 in 10.0 mi West 6.9 mph - N/A   Clear
12:15 PM 44.6 °F 40.2 °F 17.6 °F 34% 30.01 in 10.0 mi WSW 8.1 mph 17.3 mph N/A   Clear
12:35 PM 44.6 °F 39.2 °F 17.6 °F 34% 30.00 in 10.0 mi WSW 10.4 mph 17.3 mph N/A   Clear
12:55 PM 46.4 °F 40.4 °F 19.4 °F 34% 29.98 in 10.0 mi West 13.8 mph 21.9 mph N/A   Clear
1:15 PM 46.4 °F 40.4 °F 17.6 °F 32% 29.97 in 10.0 mi West 13.8 mph 20.7 mph N/A   Clear
1:35 PM 48.2 °F - 19.4 °F 32% 29.95 in 10.0 mi West 10.4 mph 17.3 mph N/A   Clear
1:55 PM 48.2 °F - 19.4 °F 32% 29.94 in 10.0 mi WSW 10.4 mph 24.2 mph N/A   Clear
2:15 PM 48.2 °F - 17.6 °F 30% 29.93 in 10.0 mi WSW 9.2 mph 21.9 mph N/A   Clear
2:35 PM 50.0 °F - 17.6 °F 28% 29.90 in 10.0 mi West 11.5 mph 19.6 mph N/A   Clear
2:55 PM 50.0 °F - 17.6 °F 28% 29.89 in 10.0 mi WSW 15.0 mph 25.3 mph N/A   Scattered Clouds
3:15 PM 48.2 °F - 15.8 °F 27% 29.88 in 10.0 mi West 13.8 mph 21.9 mph N/A   Scattered Clouds
3:35 PM 48.2 °F - 17.6 °F 30% 29.86 in 10.0 mi West 10.4 mph 21.9 mph N/A   Scattered Clouds
3:55 PM 48.2 °F - 17.6 °F 30% 29.86 in 10.0 mi WNW 10.4 mph 25.3 mph N/A   Scattered Clouds
4:15 PM 48.2 °F - 17.6 °F 30% 29.84 in 10.0 mi West 12.7 mph 23.0 mph N/A   Scattered Clouds
4:35 PM 48.2 °F - 15.8 °F 27% 29.83 in 10.0 mi West 9.2 mph 20.7 mph N/A   Scattered Clouds
4:55 PM 50.0 °F - 15.8 °F 26% 29.82 in 10.0 mi WSW 12.7 mph 23.0 mph N/A   Scattered Clouds
5:15 PM 48.2 °F - 15.8 °F 27% 29.82 in 10.0 mi West 13.8 mph 20.7 mph N/A   Scattered Clouds
5:35 PM 48.2 °F - 15.8 °F 27% 29.81 in 10.0 mi WSW 11.5 mph 18.4 mph N/A   Clear
5:55 PM 48.2 °F - 15.8 °F 27% 29.80 in 10.0 mi WSW 12.7 mph 21.9 mph N/A   Scattered Clouds
6:15 PM 48.2 °F - 15.8 °F 27% 29.80 in 10.0 mi WSW 12.7 mph 26.5 mph N/A   Scattered Clouds
6:35 PM 46.4 °F 41.1 °F 15.8 °F 29% 29.80 in 10.0 mi West 11.5 mph 19.6 mph N/A   Scattered Clouds
6:55 PM 46.4 °F 42.4 °F 15.8 °F 29% 29.80 in 10.0 mi WSW 8.1 mph 17.3 mph N/A   Scattered Clouds
7:15 PM 44.6 °F 39.7 °F 15.8 °F 31% 29.80 in 10.0 mi SW 9.2 mph - N/A   Clear
7:35 PM 44.6 °F 42.2 °F 15.8 °F 31% 29.80 in 10.0 mi WSW 4.6 mph - N/A   Scattered Clouds
7:55 PM 42.8 °F - 17.6 °F 36% 29.80 in 10.0 mi Calm Calm - N/A   Mostly Cloudy
8:15 PM 42.8 °F 40.1 °F 17.6 °F 36% 29.80 in 10.0 mi WSW 4.6 mph - N/A   Mostly Cloudy
8:35 PM 42.8 °F 39.3 °F 17.6 °F 36% 29.80 in 10.0 mi WSW 5.8 mph - N/A   Mostly Cloudy
8:55 PM 41.0 °F 39.0 °F 17.6 °F 39% 29.79 in 10.0 mi WSW 3.5 mph - N/A   Scattered Clouds
9:15 PM 41.0 °F 38.0 °F 17.6 °F 39% 29.79 in 10.0 mi West 4.6 mph - N/A   Clear
9:35 PM 39.2 °F 37.0 °F 17.6 °F 42% 29.79 in 10.0 mi West 3.5 mph - N/A   Clear
9:55 PM 39.2 °F 35.0 °F 19.4 °F 45% 29.79 in 10.0 mi WNW 5.8 mph - N/A   Mostly Cloudy
10:15 PM 41.0 °F 37.1 °F 17.6 °F 39% 29.80 in 10.0 mi West 5.8 mph - N/A   Overcast
10:35 PM 41.0 °F 34.3 °F 23.0 °F 49% 29.80 in 10.0 mi WNW 11.5 mph 17.3 mph N/A   Overcast
10:55 PM 37.4 °F 30.3 °F 28.4 °F 70% 29.80 in 10.0 mi NW 10.4 mph 21.9 mph N/A   Scattered Clouds
11:15 PM 37.4 °F 31.4 °F 28.4 °F 70% 29.81 in 10.0 mi WNW 8.1 mph 16.1 mph N/A   Clear
11:35 PM 35.6 °F 27.1 °F 32.0 °F 87% 29.82 in 7.0 mi WNW 12.7 mph 18.4 mph N/A Snow Light Snow
11:55 PM 33.8 °F 24.3 °F 32.0 °F 93% 29.83 in 2.0 mi WNW 13.8 mph 25.3 mph N/A Snow Light Snow